[[{"header":{"parameterUnit":"m.s-1","parameterCategory":1,"la1":30.2991,"la2":30.254,"lo1":-89.0895,"lo2":-89.0444,"dy":0.0017,"dx":0.0017,"nx":28,"ny":28,"refTime":"2024-08-12T21:00:00:Z","depth":0,"parameterNumber":2,"parameterNumberName":"U-component_of_WINDS"},"data":[0,0,0,0,0,0,0,0,0,0,0,0,0,0,0,0,0,0,0,0,0,0,0,0,0,0,0,0,0,0,0,0,0,0,0,0,0,0,0,0,0,0,0,0,0,0,0,0,0,0,0,0,0,0,0,0,0,0,2.2715,2.2716,0,2.2823,2.2825,2.2826,2.2834,2.2833,2.2831,2.283,2.2944,2.2948,2.2952,0,0,0,0,0,0,0,0,0,0,0,0,0,2.2517,2.2521,2.2715,2.2716,2.2717,2.2823,2.2825,2.2826,2.2834,2.2832,2.2831,2.283,2.2942,2.2947,2.2952,0,0,0,0,0,0,0,0,0,0,0,0,0,2.2612,2.2522,2.2715,2.2734,2.2737,2.2823,2.2825,2.2827,2.2834,2.2832,2.2831,2.2829,2.2941,2.2947,2.2953,2.3028,0,0,2.2972,2.2975,0,0,0,0,0,0,0,0,2.2607,2.2619,2.273,2.2733,2.2736,2.2813,2.2797,2.2894,2.2835,2.2797,2.283,2.2828,2.2902,2.2911,2.2936,2.3033,2.3038,2.2973,2.2976,2.2979,2.2981,0,0,0,0,0,0,0,2.26,2.2615,2.2758,2.2731,2.2735,2.2738,2.275,2.2815,2.2859,2.28,2.2801,2.2814,2.2903,2.293,2.2938,2.3039,2.2972,2.2978,2.2982,2.2984,2.3204,2.3206,0,0,0,0,0,0,2.2589,2.2609,2.2754,2.2761,2.2666,2.2743,2.2756,2.279,2.2858,2.2866,2.2815,2.2814,2.292,2.2931,2.2942,2.3034,2.2979,2.2985,2.2988,2.3202,2.3205,2.3207,0,0,0,0,0,0,2.2585,2.2602,2.275,2.2685,2.2704,2.2749,2.2787,2.2793,2.282,2.2869,2.2877,2.2834,2.2919,2.2934,2.3006,2.3038,2.2988,2.2993,2.3199,2.3203,2.3206,2.3218,0,0,0,0,0,0,2.2579,2.2601,2.2629,2.2686,2.2708,2.2811,2.2789,2.2797,2.283,2.2829,2.2889,2.2897,2.2919,2.2997,2.3012,2.3046,2.2998,2.3197,2.3201,2.3205,2.3215,2.3221,2.3226,0,0,0,0,0,2.2572,2.2628,2.263,2.2647,2.2744,2.2813,2.2825,2.2849,2.2832,2.2861,2.2893,2.2895,2.3032,2.3004,2.3022,2.3057,2.3195,2.32,2.3204,2.3212,2.322,2.3226,0,0,0,0,0,0,2.2574,2.2636,2.2639,2.2715,2.2758,2.2814,2.2851,2.2856,2.2906,2.2903,2.2931,2.2944,2.3016,2.3044,2.3012,2.3134,2.3112,2.312,2.3112,2.312,2.3125,2.3117,2.3003,0,0,0,0,0,2.2583,2.2633,2.2685,2.2747,2.2769,2.2806,2.2837,2.2852,2.2898,2.2917,2.2954,2.3,2.3054,2.3089,2.3141,2.322,2.3233,2.3253,2.3259,2.3263,2.327,2.3314,2.3323,2.3222,2.3222,2.3222,0,0,2.2602,2.2643,2.2673,2.2749,2.2784,2.2836,2.2822,2.2878,2.2917,2.2926,2.2996,2.3025,2.3079,2.3155,2.319,2.3181,2.3301,2.3269,2.3272,2.3277,2.332,2.3329,2.3338,2.3226,2.3225,2.3225,0,0,2.2664,2.27,2.2755,2.2791,2.2845,2.287,2.2883,2.2939,2.2958,2.3029,2.3037,2.3085,2.3177,2.3214,2.3245,2.3323,2.3326,2.3339,2.3369,2.3412,2.342,2.3427,2.3454,2.3464,2.3346,2.3346,2.3346,0,2.2681,2.2759,2.2783,2.2839,2.2872,2.2883,2.294,2.2974,2.3042,2.3065,2.3054,2.3169,2.3206,2.3291,2.331,2.3335,2.3352,2.3332,2.3416,2.3424,2.3431,2.3457,2.3468,2.3347,2.3347,2.3347,2.3347,0,2.2778,2.2832,2.2871,2.2936,2.2974,2.303,2.3063,2.3099,2.3111,2.3137,2.321,2.3254,2.3315,2.3337,2.3349,2.3424,2.3416,2.3411,2.3389,2.3441,2.3466,2.3477,2.3349,2.3349,2.3348,2.3348,0,0,2.2842,2.292,2.2934,2.2964,2.3025,2.3068,2.3125,2.3184,2.3215,2.3262,2.3311,2.3389,2.3384,2.3419,2.3436,2.3473,2.3532,2.3463,2.3465,2.3473,2.3617,2.362,2.3631,2.3535,2.3537,2.3538,2.3612,0,2.291,2.301,2.3034,2.3121,2.3172,2.3183,2.3233,2.3277,2.3303,2.3351,2.338,2.3435,2.3424,2.3446,2.3484,2.3516,2.3561,2.3512,2.358,2.3583,2.3565,2.3645,2.3648,2.3716,2.3622,2.3624,2.3625,0,2.3002,2.3051,2.3142,2.3197,2.322,2.3264,2.332,2.3366,2.3416,2.3433,2.3472,2.3485,2.3546,2.3523,2.3607,2.3573,2.3603,2.3624,2.3627,2.3634,2.3606,2.3652,2.3738,2.3747,2.3641,2.364,2.3639,0,2.3038,2.3128,2.3194,2.3219,2.3285,2.3316,2.3345,2.3393,2.3428,2.3478,2.3501,2.3558,2.3589,2.3633,2.3661,2.3641,2.3743,2.3722,2.3759,2.3758,2.3779,2.3777,2.3869,2.38,2.38,2.38,2.3799,0,2.3111,2.3166,2.3211,2.3252,2.3315,2.3343,2.3404,2.3434,2.3477,2.3524,2.3538,2.3582,2.3618,2.3667,2.369,2.3756,2.377,2.3786,2.3791,2.3784,2.3782,2.3803,2.3799,2.3802,2.3802,2.3801,2.3801,0,2.3161,2.3194,2.3267,2.3324,2.3339,2.3383,2.3432,2.3473,2.35,2.356,2.3575,2.3619,2.3677,2.371,2.3785,2.38,2.3874,2.3877,2.3856,2.3859,2.3893,2.3889,2.4001,2.4017,2.3938,2.3939,2.394,0,2.3205,2.3248,2.3309,2.3342,2.3371,2.3423,2.3459,2.3488,2.3525,2.3585,2.3619,2.3678,2.3727,2.3821,2.3859,2.3917,2.3921,2.3956,2.3929,2.3921,2.392,2.3917,2.3921,2.3961,2.3961,2.3962,2.3962,0,2.3278,2.3292,2.3342,2.3398,2.344,2.3486,2.3531,2.3557,2.3594,2.3635,2.3695,2.3733,2.3809,2.3868,2.3928,2.3959,2.3967,2.3971,2.3982,2.3975,2.396,2.3968,2.3868,2.3968,2.3967,2.3967,2.3966,2.3966,2.3326,2.3365,2.3414,2.347,2.3507,2.3549,2.359,2.3623,2.3673,2.3737,2.3752,2.3815,2.3865,2.3947,2.398,2.403,2.4023,2.404,2.4044,2.4047,2.4048,2.3953,2.4041,2.4041,2.4041,2.4041,2.4041,0,2.3399,2.3432,2.3483,2.3546,2.359,2.3594,2.3645,2.3681,2.3736,2.3782,2.383,2.39,2.3958,2.4001,2.406,2.4092,2.4097,2.4107,2.4104,2.4111,2.4051,2.4035,2.4101,2.4101,2.4101,2.4101,2.4101,2.4101,2.3442,2.3508,2.3529,2.3614,2.3646,2.3708,2.3737,2.3776,2.3813,2.3889,2.3937,2.3965,2.401,2.4073,2.4126,2.4138,2.4158,2.4167,2.4179,2.4122,2.4115,2.4109,2.4094,2.4172,2.4172,2.4234,2.4235,2.4235]},{"header":{"parameterUnit":"m.s-1","parameterCategory":1,"la1":30.2991,"la2":30.254,"lo1":-89.0895,"lo2":-89.0444,"dy":0.0017,"dx":0.0017,"nx":28,"ny":28,"refTime":"2024-08-12T21:00:00:Z","depth":0,"parameterNumber":3,"parameterNumberName":"V-component_of_WINDS"},"data":[0,0,0,0,0,0,0,0,0,0,0,0,0,0,0,0,0,0,0,0,0,0,0,0,0,0,0,0,0,0,0,0,0,0,0,0,0,0,0,0,0,0,0,0,0,0,0,0,0,0,0,0,0,0,0,0,0,0,3.7833,3.7833,0,3.789,3.789,3.7891,3.789,3.7889,3.7889,3.7888,3.7943,3.7945,3.7947,0,0,0,0,0,0,0,0,0,0,0,0,0,3.7717,3.7719,3.7832,3.7833,3.7834,3.7889,3.789,3.7891,3.789,3.7889,3.7888,3.7888,3.7942,3.7944,3.7947,0,0,0,0,0,0,0,0,0,0,0,0,0,3.777,3.772,3.7832,3.784,3.7842,3.7889,3.789,3.7891,3.789,3.7889,3.7888,3.7887,3.7941,3.7944,3.7947,3.799,0,0,3.7957,3.7959,0,0,0,0,0,0,0,0,3.7767,3.7774,3.7838,3.784,3.7841,3.7882,3.787,3.7924,3.7891,3.7872,3.7888,3.7887,3.7923,3.7928,3.7941,3.7992,3.7995,3.7958,3.796,3.7961,3.7962,0,0,0,0,0,0,0,3.7763,3.7772,3.7855,3.7839,3.7841,3.7839,3.7845,3.788,3.7903,3.7873,3.7873,3.788,3.7924,3.7938,3.7942,3.7996,3.7958,3.796,3.7962,3.7964,3.8081,3.8082,0,0,0,0,0,0,3.7759,3.7769,3.7853,3.7857,3.7801,3.7842,3.7849,3.787,3.7903,3.7907,3.7881,3.788,3.7933,3.7938,3.7944,3.7993,3.7961,3.7964,3.7966,3.808,3.8081,3.8082,0,0,0,0,0,0,3.7756,3.7766,3.7851,3.7813,3.7823,3.7845,3.7868,3.7871,3.7886,3.7909,3.7912,3.7892,3.7932,3.7939,3.7978,3.7995,3.7965,3.7968,3.8078,3.808,3.8082,3.8093,0,0,0,0,0,0,3.7753,3.7765,3.7783,3.7813,3.7825,3.7886,3.787,3.7873,3.7892,3.7891,3.7919,3.7923,3.7932,3.7973,3.7981,3.7999,3.7971,3.8077,3.8079,3.8081,3.8091,3.8095,3.8099,0,0,0,0,0,3.7749,3.7784,3.7784,3.7794,3.7849,3.7887,3.7893,3.7904,3.7893,3.791,3.7924,3.7922,3.7992,3.7977,3.7986,3.8005,3.8076,3.8078,3.8081,3.809,3.8095,3.8098,0,0,0,0,0,0,3.7756,3.7789,3.7789,3.7836,3.7858,3.7887,3.7909,3.7909,3.7934,3.7932,3.7943,3.7949,3.7987,3.8,3.7983,3.8046,3.8032,3.8037,3.8036,3.8041,3.8044,3.8039,3.7974,0,0,0,0,0,3.7763,3.7793,3.7819,3.7858,3.7869,3.7887,3.7904,3.791,3.7933,3.7942,3.796,3.7981,3.8008,3.8025,3.8051,3.8093,3.8098,3.8111,3.8114,3.8117,3.812,3.814,3.8145,3.8091,3.8091,3.8091,0,0,3.7778,3.7799,3.7817,3.786,3.7878,3.7906,3.7895,3.7926,3.7947,3.7947,3.7984,3.7997,3.8021,3.8061,3.808,3.8073,3.8136,3.812,3.8122,3.8124,3.8144,3.8149,3.8153,3.8093,3.8092,3.8092,0,0,3.7819,3.7839,3.7872,3.789,3.7918,3.7929,3.7937,3.7964,3.7973,3.801,3.801,3.8034,3.808,3.8097,3.8111,3.8155,3.8152,3.8163,3.8181,3.82,3.8204,3.8208,3.8221,3.8226,3.8166,3.8166,3.8166,0,3.7833,3.7878,3.7889,3.7919,3.7936,3.7938,3.7969,3.7986,3.8021,3.8031,3.8024,3.808,3.8097,3.8139,3.8149,3.8162,3.8169,3.8159,3.8203,3.8207,3.8211,3.8223,3.8228,3.8167,3.8167,3.8167,3.8167,0,3.7892,3.7923,3.7945,3.7978,3.7998,3.8029,3.8043,3.8061,3.8064,3.8075,3.8111,3.8131,3.8159,3.817,3.8174,3.8212,3.8206,3.8201,3.8187,3.8216,3.8228,3.8233,3.8168,3.8168,3.8168,3.8168,0,0,3.7941,3.7977,3.7985,3.7999,3.8028,3.8051,3.808,3.8109,3.8123,3.8146,3.8169,3.8207,3.8201,3.8217,3.8222,3.824,3.8269,3.8232,3.8232,3.8236,3.8308,3.8311,3.8317,3.8268,3.8269,3.827,3.8306,0,3.7983,3.8036,3.8046,3.8092,3.8118,3.8118,3.8143,3.8163,3.8173,3.8195,3.8206,3.8232,3.8224,3.8233,3.825,3.8262,3.8283,3.826,3.8287,3.8288,3.828,3.8323,3.8327,3.836,3.831,3.8311,3.8312,0,3.804,3.8063,3.8112,3.8135,3.8146,3.8169,3.8193,3.8216,3.8236,3.8242,3.8259,3.8262,3.8289,3.8275,3.8312,3.8295,3.8307,3.8314,3.8316,3.8318,3.8301,3.8324,3.8371,3.8375,3.832,3.8319,3.8319,0,3.8066,3.8111,3.8145,3.8157,3.8185,3.82,3.8212,3.8232,3.8247,3.8268,3.8278,3.8302,3.8315,3.8332,3.834,3.8329,3.8375,3.8362,3.8379,3.8379,3.8388,3.8387,3.8435,3.8398,3.8398,3.8398,3.8398,0,3.8112,3.8141,3.8157,3.8177,3.8209,3.8218,3.8248,3.826,3.8277,3.8298,3.83,3.8319,3.8329,3.835,3.8356,3.8384,3.839,3.8394,3.8395,3.8393,3.8392,3.84,3.8397,3.84,3.8399,3.8399,3.8399,0,3.8147,3.8159,3.8196,3.8219,3.8225,3.8247,3.8265,3.8284,3.8294,3.832,3.8327,3.8341,3.8365,3.8375,3.8404,3.8408,3.8439,3.8439,3.8432,3.8432,3.8447,3.8445,3.8501,3.8507,3.8468,3.8468,3.8469,0,3.8174,3.8196,3.8221,3.8235,3.8248,3.8272,3.8287,3.8296,3.8311,3.8335,3.835,3.8374,3.8393,3.843,3.8442,3.8464,3.8463,3.8481,3.8467,3.8463,3.8461,3.8459,3.846,3.8484,3.8484,3.8484,3.8485,0,3.822,3.8224,3.8247,3.8271,3.8289,3.8308,3.8326,3.8338,3.8349,3.8366,3.839,3.8405,3.8434,3.8457,3.8478,3.8489,3.8488,3.8489,3.8494,3.8491,3.8485,3.8486,3.8438,3.8488,3.8487,3.8487,3.8487,3.8487,3.8251,3.8269,3.8289,3.8313,3.8327,3.8344,3.8362,3.8373,3.8394,3.8418,3.8422,3.8447,3.8464,3.8493,3.8504,3.8523,3.8518,3.8525,3.8527,3.8528,3.8528,3.8483,3.8527,3.8527,3.8527,3.8527,3.8527,0,3.8295,3.8307,3.8329,3.8354,3.8372,3.837,3.839,3.8405,3.8427,3.8443,3.8462,3.8488,3.8509,3.8522,3.8543,3.8555,3.8555,3.856,3.8559,3.856,3.8532,3.8525,3.856,3.856,3.856,3.856,3.856,3.856,3.832,3.835,3.8356,3.8392,3.8404,3.8429,3.844,3.8454,3.8467,3.8496,3.8514,3.8522,3.8536,3.8558,3.8576,3.8579,3.8586,3.8591,3.8593,3.8566,3.8563,3.856,3.8553,3.8593,3.8593,3.862,3.862,3.8621]}]]